Location: Croydon
(51.3762°N, 0.0982°W)
Time: 10:31:48
(UTC+01:00)

VELOX 1 - Pass Details

Date: 02 May 2019
Orbit: 629 x 644 km, 98.2° (Epoch: 24 May)

Event Time Altitude Azimuth Distance (km) Brightness Sun altitude
Exits shadow 02:57:57 25° 261° (W) 1,283 ? -18.4°
Maximum altitude 02:58:10 25° 266° (W) 1,280 ? -18.4°
Drops below altitude 10° 03:01:49 10° 323° (NW) 2,023 ? -18.1°
Sets 03:04:21 0° 336° (NNW) 2,938 ? -17.9°
